Location: Bakov nad Jizerou
(50.4784°N, 14.9394°E)
Time: 23:28:13
(UTC+00:00)

Cosmos 2369 Rocket - Pass Details

Date: 16 June 2021
Orbit: 827 x 854 km, 71.0° (Epoch: 23 July)

Event Time Altitude Azimuth Distance (km) Brightness Sun altitude
Rises 23:30:01 0° 331° (NNW) 3,434 6.3 -15.9°
Reaches altitude 10° 23:32:32 10° 336° (NNW) 2,496 5.5 -15.8°
Maximum altitude 23:38:12 58° 55° (NE) 990 2.8 -15.7°
Drops below altitude 10° 23:43:49 10° 135° (SE) 2,478 4.3 -15.5°
Enters shadow 23:44:43 - 137° (SE) 2,812 4.6 -15.5°
